Regional Weather Roundup
Issued by NWS

Home | Current Version | Previous Version | Text Only | Print | Product List | Glossary On
Versions: 1 2 3 4 5 6 7 8 9 10 11 12 13 14 15 16 17 18 19 20 21 22 23 24 25 26 27 28 29 30 31 32 33 34 35 36 37 38 39 40 41 42 43 44 45 46 47 48 49 50
001
ASUS44 KLIX 301210
RWRLA
LOUISIANA WEATHER ROUNDUP
NATIONAL WEATHER SERVICE NEW ORLEANS LA
600 AM CST FRI JAN 30 2015

NOTE: "FAIR" INDICATES FEW OR NO CLOUDS BELOW 12,000 FEET WITH NO
      SIGNIFICANT WEATHER AND/OR OBSTRUCTIONS TO VISIBILITY.
      SKY/WX - SKY CONDITION AND SIGNIFICANT WEATHER.
      TMP - AIR TEMPERATURE.    DP   - DEWPOINT TEMPERATURE.
      RH  - RELATIVE HUMIDITY.  PRES - PRESSURE.
      HX  - HEAT INDEX.         WCI  - WIND CHILL INDEX.

*  THESE STATIONS ARE NOT NWS OR FAA STATIONS AND ARE NOT UNDER
   NWS QUALITY CONTROL.

LAZ040-048-061>063-065-066-069-301300-
SOUTHEAST LOUISIANA

CITY           SKY/WX    TMP DP  RH WIND       PRES   REMARKS
N.O. AUDUBON     N/A     52  45  75 MISG        N/A
6HR MIN TEMP:  52; 6HR MAX TEMP:  62; 6HR PCP:  4.55;

N.O. INTL ARPT PTCLDY    50  40  68 N14       30.33R
6HR MIN TEMP:  50; 6HR MAX TEMP:  61;

N.O. LAKEFRONT CLEAR     52  42  69 N18       30.34R
6HR MIN TEMP:  52; 6HR MAX TEMP:  60;

N.O. DOWNTOWN* NOT AVBL
SLIDELL        CLEAR     48  39  71 N8        30.32R
6HR MIN TEMP:  48; 6HR MAX TEMP:  61;

BATON ROUGE    CLEAR     45  36  70 N5        30.36R
6HR MIN TEMP:  45; 6HR MAX TEMP:  62;

BOOTHVILLE     CLEAR     55  50  83 N8        30.29R
6HR MIN TEMP:  55; 6HR MAX TEMP:  62;

BELLE CHASSE   PTCLDY    52  40  63 N9        30.31R
6HR MIN TEMP:  52; 6HR MAX TEMP:  60;

BOGALUSA*        N/A     45  38  75 N7        30.36R
6HR MIN TEMP:  45; 6HR MAX TEMP:  60;

GALLIANO*      SUNNY     54  45  73 N9        30.31R
6HR MIN TEMP:  54; 6HR MAX TEMP:  59;

NEW ROADS*     FAIR      43  34  72 N10       30.38R
6HR MIN TEMP:  43; 6HR MAX TEMP:  61;

GONZALES*      FAIR      48  40  73 N8G17     30.35R
6HR MIN TEMP:  48; 6HR MAX TEMP:  62;

HAMMOND*       CLEAR     45  36  70 N7        30.37R
HOUMA*         CLEAR     50  45  81 N10       30.31R
PORT FOURCHON* SUNNY     57  48  72 N14G22    30.32R

$$

LAZ041-044-053-054-301300-
SOUTHWEST LOUISIANA

CITY           SKY/WX    TMP DP  RH WIND       PRES   REMARKS
LAKE CHARLES   PTCLDY    49  40  71 NE15      30.35R
6HR MIN TEMP:  49; 6HR MAX TEMP:  61;

LAFAYETTE      CLEAR     45  36  70 N18       30.36R
6HR MIN TEMP:  45; 6HR MAX TEMP:  61;

PATTERSON      CLEAR     52  41  66 N13       30.33R
6HR MIN TEMP:  52; 6HR MAX TEMP:  57;

SALT POINT       N/A     52  44  74 N7        30.31R
6HR MIN TEMP:  52; 6HR MAX TEMP:  57;

NEW IBERIA     CLEAR     47  38  71 N14       30.35R
6HR MIN TEMP:  47; 6HR MAX TEMP:  59;

CHENAULT AIRPK CLEAR     46  39  76 NE12G17   30.37

$$

LAZ027-028-301300-
CENTRAL LOUISIANA

CITY           SKY/WX    TMP DP  RH WIND       PRES   REMARKS
FORT POLK      PTCLDY    43  35  74 NE7       30.39R
6HR MIN TEMP:  43; 6HR MAX TEMP:  58;

ALEXANDRIA INT PTCLDY    43  33  68 N10       30.40R
6HR MIN TEMP:  42; 6HR MAX TEMP:  58;

ALEXANDRIA     PTCLDY    43  32  65 VRB7      30.41R
6HR MIN TEMP:  43; 6HR MAX TEMP:  55;


$$

LAZ001-002-301300-
NORTHWEST LOUISIANA

CITY           SKY/WX    TMP DP  RH WIND       PRES   REMARKS
SHREVEPORT     CLOUDY    41  31  67 NE6       30.46R
6HR MIN TEMP:  41; 6HR MAX TEMP:  49;

BARKSDALE AFB  PTCLDY    39  30  68 N2        30.47R
6HR MIN TEMP:  39; 6HR MAX TEMP:  47;

DTN SHREVEPORT PTCLDY    40  30  67 NE3       30.47R
6HR MIN TEMP:  40; 6HR MAX TEMP:  48;


$$

LAZ014-016-301300-
NORTHEAST LOUISIANA

CITY           SKY/WX    TMP DP  RH WIND       PRES   REMARKS
MONROE         CLEAR     39  32  76 N9        30.46R WCI  33
6HR MIN TEMP:  39; 6HR MAX TEMP:  47;

TALLULAH       PTCLDY    39  31  72 N10       30.44R WCI  32
6HR MIN TEMP:  39; 6HR MAX TEMP:  45;


$$




USA.gov is the U.S. government's official web portal to all federal, state and local government web resources and services.